Regional Weather Roundup
Issued by NWS State College, PA

Current Version | Previous Version | Text Only | Print | Product List | Glossary On
Versions: 1 2 3 4 5 6 7 8 9 10 11 12 13 14 15 16 17 18 19 20 21 22 23 24 25 26 27 28 29 30 31 32 33 34 35 36 37 38 39 40 41 42 43 44 45 46 47 48 49 50
000
ASUS41 KCTP 190110
RWRCTP

REGIONAL WEATHER ROUNDUP
NATIONAL WEATHER SERVICE STATE COLLEGE PA
900 PM EDT MON MAR 18 2019

Note: "fair" indicates few or no clouds below 12,000 feet with no
significant weather and/or obstructions to visibility.

* = STATION THAT DOES NOT REPORT PRECIPITATION /E.G. RAIN...SNOW...ETC/
    THUNDER OR FOG.

PAZ002>004-007>009-013>016-020>023-029>032-190200-
WESTERN PENNSYLVANIA

CITY           SKY/WX    TMP DP  RH WIND       PRES   REMARKS
ERIE           FAIR      32  24  72 SW3       30.36R
MEADVILLE      FAIR      30  15  53 CALM      30.32R
FRANKLIN*      FAIR      29  16  58 CALM      30.33R
NEW CASTLE     FAIR      29  25  85 CALM      30.36R
BEAVER COUNTY  NOT AVBL
BUTLER*        FAIR      31  22  69 CALM      30.35R
PITTSBURGH INT MOCLDY    35  21  56 NW5       30.34R
PITTSBURGH     CLOUDY    36  21  54 NW3       30.33R
INDIANA*       CLOUDY    34  19  55 NW3       30.35R
LATROBE        MOCLDY    36  19  51 NW5       30.34R
WASHINGTON CO* NOT AVBL
$$

PAZ004>006-010>012-017>019-024>028-033>037-041-042-045-046-049>053-190200-
CENTRAL PENNSYLVANIA

CITY           SKY/WX    TMP DP  RH WIND       PRES   REMARKS
BRADFORD       FAIR      28  15  58 NW6       30.27R
DUBOIS         FAIR      29  14  53 W5        30.28R
CLEARFIELD     FAIR      32  16  51 NW8       30.30R
JOHNSTOWN      FAIR      30  15  53 NW9       30.27R
ALTOONA        FAIR      33  16  49 NW6       30.31R
STATE COLLEGE  PTCLDY    36  12  38 NW9       30.31R
WILLIAMSPORT   CLOUDY    37  15  40 CALM      30.30R
SELINSGROVE    FAIR      34  20  56 CALM      30.31R
FT INDIANTOWN  CLOUDY    40  16  37 W3        30.31R
CAPITAL CITY   MOCLDY    39  18  42 W3        30.32R
HARRISBURG     CLOUDY    41  23  48 W3        30.31R
YORK           MOCLDY    32  26  78 CALM      30.32R
$$

PAZ038>040-043-044-047-048-054-055-060>062-067>071-190200-
EASTERN PENNSYLVANIA

CITY           SKY/WX    TMP DP  RH WIND       PRES   REMARKS
SCRANTON       FAIR      31  13  47 CALM      30.28R
MOUNT POCONO   FAIR      27  16  63 CALM      30.24R
ALLENTOWN      FAIR      38  14  37 NW3       30.31R
QUAKERTOWN*    CLEAR     32  19  59 CALM      30.32R
READING        FAIR      40  18  41 CALM      30.31R
LANCASTER      FAIR      40  22  48 SW3       30.31R
COATESVILLE    FAIR      36  21  55 CALM      30.32R
POTTSTOWN      FAIR      31  20  63 CALM      30.33R
BLUE BELL      FAIR      34  28  80 CALM      30.34R
DOYLESTOWN     FAIR      35  18  49 CALM      30.31R
WILLOW GROVE   NOT AVBL
NORTH PHILA    FAIR      41  19  41 CALM      30.34R
PHILADELPHIA   FAIR      44  20  38 NW5       30.34R
$$



USA.gov is the U.S. government's official web portal to all federal, state and local government web resources and services.